| time (UTC) | temp C | wind direction | speed KPH | gust KPH | rain 1hr cm | rain 24hr cm | rain mn cm | humidity % | barometer mb |
| 20260507224054 | 13 | 360 | 8.0 | 16.1 | 0.00 | 0.10 | 0.10 | 60 | 1011.7 |
| 20260507223554 | 12 | 355 | 9.7 | 16.1 | 0.00 | 0.10 | 0.10 | 61 | 1011.7 |
| 20260507223058 | 12 | 317 | 9.7 | 19.3 | 0.00 | 0.10 | 0.10 | 59 | 1011.8 |
| 20260507222554 | 12 | 319 | 11.3 | 19.3 | 0.00 | 0.10 | 0.10 | 63 | 1011.7 |
| 20260507222054 | 12 | 360 | 12.9 | 19.3 | 0.05 | 0.10 | 0.10 | 66 | 1011.7 |
| 20260507221554 | 12 | 342 | 9.7 | 17.7 | 0.10 | 0.10 | 0.10 | 68 | 1011.8 |
| 20260507221054 | 12 | 340 | 9.7 | 17.7 | 0.10 | 0.10 | 0.10 | 68 | 1011.9 |
| 20260507220554 | 12 | 307 | 9.7 | 20.9 | 0.10 | 0.10 | 0.10 | 68 | 1011.9 |
| 20260507220053 | 12 | 16 | 9.7 | 20.9 | 0.10 | 0.10 | 0.10 | 71 | 1011.9 |
| 20260507215555 | 12 | 299 | 9.7 | 20.9 | 0.10 | 0.10 | 0.10 | 74 | 1011.9 |
| 20260507215052 | 11 | 339 | 12.9 | 20.9 | 0.10 | 0.10 | 0.10 | 74 | 1012.0 |
| 20260507214604 | 11 | 310 | 8.0 | 20.9 | 0.10 | 0.10 | 0.10 | 77 | 1012.0 |
| 20260507214052 | 11 | 340 | 9.7 | 20.9 | 0.10 | 0.10 | 0.10 | 78 | 1012.2 |
| 20260507213552 | 10 | 307 | 11.3 | 22.5 | 0.10 | 0.10 | 0.10 | 82 | 1012.3 |
| 20260507213102 | 10 | 360 | 12.9 | 25.7 | 0.10 | 0.10 | 0.10 | 85 | 1012.5 |
| 20260507212552 | 9 | 313 | 16.1 | 25.7 | 0.10 | 0.10 | 0.10 | 82 | 1012.7 |
| 20260507212049 | 9 | 336 | 12.9 | 32.2 | 0.05 | 0.05 | 0.05 | 78 | 1013.0 |
| 20260507211549 | 10 | 279 | 24.1 | 32.2 | 0.00 | 0.00 | 0.00 | 72 | 1013.1 |
| 20260507211046 | 12 | 303 | 20.9 | 32.2 | 0.00 | 0.00 | 0.00 | 60 | 1012.9 |
| 20260507210545 | 12 | 321 | 20.9 | 30.6 | 0.00 | 0.00 | 0.00 | 51 | 1012.7 |
| 20260507210050 | 13 | 313 | 19.3 | 27.4 | 0.00 | 0.00 | 0.00 | 48 | 1012.4 |
| 20260507205548 | 13 | 342 | 16.1 | 24.1 | 0.00 | 0.00 | 0.00 | 48 | 1012.3 |
| 20260507205045 | 13 | 329 | 16.1 | 29.0 | 0.00 | 0.00 | 0.00 | 48 | 1012.2 |
| 20260507204546 | 13 | 355 | 19.3 | 30.6 | 0.00 | 0.00 | 0.00 | 48 | 1012.1 |
| 20260507204046 | 14 | 311 | 19.3 | 37.0 | 0.00 | 0.00 | 0.00 | 47 | 1012.0 |
| 20260507203544 | 15 | 331 | 22.5 | 37.0 | 0.00 | 0.00 | 0.00 | 46 | 1012.0 |
| 20260507203045 | 15 | 292 | 25.7 | 37.0 | 0.00 | 0.00 | 0.00 | 45 | 1011.9 |
| 20260507202547 | 15 | 339 | 11.3 | 30.6 | 0.00 | 0.00 | 0.00 | 45 | 1011.9 |
| 20260507202043 | 15 | 313 | 17.7 | 30.6 | 0.00 | 0.00 | 0.00 | 46 | 1011.9 |
| 20260507201544 | 15 | 11 | 14.5 | 27.4 | 0.00 | 0.00 | 0.00 | 52 | 1011.8 |
| 20260507201042 | 15 | 345 | 17.7 | 27.4 | 0.00 | 0.00 | 0.00 | 47 | 1011.9 |
| 20260507200545 | 15 | 5 | 14.5 | 27.4 | 0.00 | 0.00 | 0.00 | 44 | 1011.9 |
| 20260507200043 | 15 | 329 | 17.7 | 30.6 | 0.00 | 0.00 | 0.00 | 44 | 1012.0 |
| 20260507195546 | 15 | 329 | 14.5 | 30.6 | 0.00 | 0.00 | 0.00 | 43 | 1012.0 |
| 20260507195042 | 15 | 273 | 16.1 | 29.0 | 0.00 | 0.00 | 0.00 | 41 | 1011.9 |
| 20260507194611 | 15 | 282 | 20.9 | 32.2 | 0.00 | 0.00 | 0.00 | 42 | 1011.9 |
| 20260507194044 | 15 | 272 | 17.7 | 30.6 | 0.00 | 0.00 | 0.00 | 41 | 1012.0 |
| 20260507193540 | 16 | 264 | 17.7 | 27.4 | 0.00 | 0.00 | 0.00 | 40 | 1011.9 |
| 20260507193043 | 16 | 274 | 14.5 | 33.8 | 0.00 | 0.00 | 0.00 | 41 | 1011.8 |
| 20260507192542 | 16 | 271 | 19.3 | 33.8 | 0.00 | 0.00 | 0.00 | 41 | 1011.9 |
| 20260507192040 | 15 | 273 | 14.5 | 29.0 | 0.00 | 0.00 | 0.00 | 42 | 1011.9 |
| 20260507191540 | 15 | 264 | 17.7 | 27.4 | 0.00 | 0.00 | 0.00 | 43 | 1011.9 |
| 20260507191039 | 15 | 327 | 14.5 | 22.5 | 0.00 | 0.00 | 0.00 | 43 | 1011.9 |
| 20260507190539 | 15 | 309 | 14.5 | 30.6 | 0.00 | 0.00 | 0.00 | 43 | 1011.9 |
| 20260507190046 | 15 | 302 | 19.3 | 30.6 | 0.00 | 0.00 | 0.00 | 43 | 1011.9 |
| 20260507185538 | 15 | 310 | 16.1 | 29.0 | 0.00 | 0.00 | 0.00 | 43 | 1012.0 |
| 20260507185041 | 15 | 329 | 16.1 | 29.0 | 0.00 | 0.00 | 0.00 | 41 | 1012.0 |
| 20260507184538 | 15 | 317 | 12.9 | 30.6 | 0.00 | 0.00 | 0.00 | 39 | 1011.9 |
| 20260507184038 | 15 | 292 | 19.3 | 30.6 | 0.00 | 0.00 | 0.00 | 37 | 1011.9 |
| 20260507183537 | 15 | 287 | 12.9 | 22.5 | 0.00 | 0.00 | 0.00 | 36 | 1011.9 |
| 20260507183044 | 16 | 278 | 12.9 | 24.1 | 0.00 | 0.00 | 0.00 | 36 | 1011.9 |
| 20260507182537 | 16 | 314 | 14.5 | 22.5 | 0.00 | 0.00 | 0.00 | 35 | 1011.9 |
| 20260507182036 | 16 | 331 | 12.9 | 27.4 | 0.00 | 0.00 | 0.00 | 37 | 1011.9 |
| 20260507181536 | 16 | 335 | 17.7 | 27.4 | 0.00 | 0.00 | 0.00 | 38 | 1011.9 |
| 20260507181038 | 16 | 259 | 12.9 | 30.6 | 0.00 | 0.00 | 0.00 | 38 | 1012.0 |
| 20260507180535 | 16 | 273 | 22.5 | 30.6 | 0.00 | 0.00 | 0.00 | 37 | 1012.1 |
| 20260507180038 | 15 | 283 | 17.7 | 29.0 | 0.00 | 0.00 | 0.00 | 38 | 1012.2 |
| 20260507175635 | 15 | 288 | 19.3 | 30.6 | 0.00 | 0.00 | 0.00 | 38 | 1012.1 |
| 20260507175034 | 15 | 278 | 17.7 | 32.2 | 0.00 | 0.00 | 0.00 | 38 | 1012.2 |
| 20260507174539 | 15 | 305 | 22.5 | 32.2 | 0.00 | 0.00 | 0.00 | 38 | 1012.2 |
| 20260507174032 | 15 | 303 | 16.1 | 27.4 | 0.00 | 0.00 | 0.00 | 36 | 1012.2 |
| 20260507173532 | 15 | 272 | 16.1 | 27.4 | 0.00 | 0.00 | 0.00 | 34 | 1012.3 |
| 20260507173049 | 15 | 311 | 11.3 | 29.0 | 0.00 | 0.00 | 0.00 | 34 | 1012.3 |
| 20260507172533 | 15 | 327 | 17.7 | 29.0 | 0.00 | 0.00 | 0.00 | 34 | 1012.3 |
| 20260507172031 | 15 | 319 | 16.1 | 25.7 | 0.00 | 0.00 | 0.00 | 35 | 1012.2 |
| 20260507171542 | 15 | 306 | 8.0 | 29.0 | 0.00 | 0.00 | 0.00 | 34 | 1012.2 |
| 20260507171032 | 15 | 350 | 14.5 | 32.2 | 0.00 | 0.00 | 0.00 | 36 | 1012.4 |
| 20260507170532 | 15 | 277 | 19.3 | 32.2 | 0.00 | 0.00 | 0.00 | 35 | 1012.4 |
| 20260507170034 | 15 | 311 | 12.9 | 30.6 | 0.00 | 0.00 | 0.00 | 35 | 1012.4 |
| 20260507165531 | 16 | 333 | 16.1 | 30.6 | 0.00 | 0.00 | 0.00 | 34 | 1012.5 |
| 20260507165030 | 15 | 335 | 12.9 | 25.7 | 0.00 | 0.00 | 0.00 | 35 | 1012.5 |
| 20260507164533 | 15 | 313 | 9.7 | 29.0 | 0.00 | 0.00 | 0.00 | 36 | 1012.4 |
| 20260507164028 | 15 | 327 | 19.3 | 29.0 | 0.00 | 0.00 | 0.00 | 35 | 1012.6 |
| 20260507163528 | 15 | 313 | 14.5 | 29.0 | 0.00 | 0.00 | 0.00 | 36 | 1012.5 |
| 20260507163027 | 15 | 328 | 11.3 | 37.0 | 0.00 | 0.00 | 0.00 | 37 | 1012.5 |
| 20260507162527 | 15 | 300 | 24.1 | 37.0 | 0.00 | 0.00 | 0.00 | 36 | 1012.5 |
| 20260507162027 | 15 | 301 | 17.7 | 35.4 | 0.00 | 0.00 | 0.00 | 34 | 1012.5 |
| 20260507161530 | 15 | 309 | 22.5 | 33.8 | 0.00 | 0.00 | 0.00 | 35 | 1012.5 |
| 20260507161025 | 15 | 332 | 14.5 | 33.8 | 0.00 | 0.00 | 0.00 | 35 | 1012.6 |
| 20260507160525 | 14 | 349 | 11.3 | 29.0 | 0.00 | 0.00 | 0.00 | 35 | 1012.6 |
| 20260507160028 | 14 | 309 | 14.5 | 27.4 | 0.00 | 0.00 | 0.00 | 36 | 1012.6 |
| 20260507155523 | 14 | 311 | 9.7 | 32.2 | 0.00 | 0.00 | 0.00 | 37 | 1012.7 |
| 20260507155022 | 14 | 302 | 16.1 | 32.2 | 0.00 | 0.00 | 0.00 | 36 | 1012.7 |
| 20260507154522 | 13 | 309 | 14.5 | 27.4 | 0.00 | 0.00 | 0.00 | 37 | 1012.7 |
| 20260507154024 | 13 | 297 | 16.1 | 27.4 | 0.00 | 0.00 | 0.00 | 36 | 1012.9 |
| 20260507153519 | 13 | 338 | 16.1 | 25.7 | 0.00 | 0.00 | 0.00 | 37 | 1012.9 |
| 20260507153019 | 13 | 360 | 17.7 | 25.7 | 0.00 | 0.00 | 0.00 | 36 | 1012.8 |
| 20260507152520 | 12 | 323 | 11.3 | 19.3 | 0.00 | 0.00 | 0.00 | 40 | 1012.8 |
| 20260507152019 | 12 | 309 | 11.3 | 22.5 | 0.00 | 0.00 | 0.00 | 40 | 1012.8 |
| 20260507151516 | 12 | 338 | 12.9 | 22.5 | 0.00 | 0.00 | 0.00 | 40 | 1012.8 |
| 20260507151015 | 12 | 320 | 14.5 | 20.9 | 0.00 | 0.00 | 0.00 | 41 | 1012.8 |
| 20260507150515 | 11 | 292 | 12.9 | 24.1 | 0.00 | 0.00 | 0.00 | 40 | 1012.7 |
| 20260507150015 | 11 | 323 | 14.5 | 25.7 | 0.00 | 0.00 | 0.00 | 40 | 1012.7 |
| 20260507145514 | 12 | 317 | 17.7 | 30.6 | 0.00 | 0.00 | 0.00 | 40 | 1012.8 |
| 20260507145019 | 12 | 307 | 17.7 | 30.6 | 0.00 | 0.00 | 0.00 | 39 | 1012.6 |
| 20260507144514 | 12 | 308 | 16.1 | 30.6 | 0.00 | 0.00 | 0.00 | 40 | 1012.6 |
| 20260507144014 | 12 | 311 | 22.5 | 30.6 | 0.00 | 0.00 | 0.00 | 38 | 1012.6 |
| 20260507143516 | 12 | 325 | 20.9 | 37.0 | 0.00 | 0.00 | 0.00 | 37 | 1012.5 |
| 20260507143019 | 12 | 314 | 19.3 | 37.0 | 0.00 | 0.00 | 0.00 | 39 | 1012.5 |
| 20260507142511 | 12 | 323 | 20.9 | 32.2 | 0.00 | 0.00 | 0.00 | 38 | 1012.4 |
| 20260507142011 | 12 | 323 | 20.9 | 32.2 | 0.00 | 0.00 | 0.00 | 38 | 1012.3 |
| 20260507141508 | 12 | 324 | 20.9 | 30.6 | 0.00 | 0.00 | 0.00 | 38 | 1012.2 |
| 20260507141007 | 12 | 293 | 17.7 | 35.4 | 0.00 | 0.00 | 0.00 | 39 | 1012.2 |
| 20260507140506 | 11 | 313 | 19.3 | 35.4 | 0.00 | 0.00 | 0.00 | 39 | 1012.4 |
| 20260507140005 | 11 | 321 | 19.3 | 33.8 | 0.00 | 0.00 | 0.00 | 40 | 1012.4 |
| 20260507135605 | 11 | 298 | 20.9 | 33.8 | 0.00 | 0.00 | 0.00 | 39 | 1012.3 |
| 20260507135002 | 11 | 336 | 19.3 | 29.0 | 0.00 | 0.00 | 0.00 | 40 | 1012.3 |
| 20260507134505 | 11 | 311 | 14.5 | 25.7 | 0.00 | 0.00 | 0.00 | 41 | 1012.2 |
| 20260507134100 | 11 | 321 | 14.5 | 27.4 | 0.00 | 0.00 | 0.00 | 41 | 1012.2 |
| 20260507133559 | 10 | 298 | 14.5 | 27.4 | 0.00 | 0.00 | 0.00 | 43 | 1012.3 |
| 20260507133105 | 10 | 302 | 14.5 | 25.7 | 0.00 | 0.00 | 0.00 | 44 | 1012.2 |
| 20260507132557 | 10 | 292 | 14.5 | 25.7 | 0.00 | 0.00 | 0.00 | 44 | 1012.1 |
| 20260507132055 | 10 | 318 | 14.5 | 25.7 | 0.00 | 0.00 | 0.00 | 45 | 1012.1 |
| 20260507131554 | 10 | 304 | 12.9 | 22.5 | 0.00 | 0.00 | 0.00 | 47 | 1012.1 |
| 20260507131052 | 9 | 315 | 14.5 | 22.5 | 0.00 | 0.00 | 0.00 | 47 | 1012.0 |
| 20260507130550 | 8 | 328 | 11.3 | 20.9 | 0.00 | 0.00 | 0.00 | 48 | 1011.9 |
| 20260507130049 | 8 | 315 | 11.3 | 19.3 | 0.00 | 0.00 | 0.00 | 49 | 1011.9 |
| 20260507125548 | 8 | 316 | 9.7 | 17.7 | 0.00 | 0.00 | 0.00 | 50 | 1011.8 |
| 20260507125049 | 7 | 327 | 9.7 | 16.1 | 0.00 | 0.00 | 0.00 | 50 | 1011.9 |
| 20260507124547 | 7 | 298 | 11.3 | 16.1 | 0.00 | 0.00 | 0.00 | 51 | 1011.8 |
| 20260507124047 | 7 | 306 | 8.0 | 14.5 | 0.00 | 0.00 | 0.00 | 51 | 1011.8 |
| 20260507123548 | 7 | 300 | 6.4 | 12.9 | 0.00 | 0.00 | 0.00 | 52 | 1011.7 |
| 20260507123048 | 7 | 293 | 8.0 | 12.9 | 0.00 | 0.00 | 0.00 | 52 | 1011.8 |
| 20260507122546 | 6 | 292 | 6.4 | 12.9 | 0.00 | 0.00 | 0.00 | 52 | 1011.7 |
| 20260507122046 | 6 | 316 | 4.8 | 9.7 | 0.00 | 0.00 | 0.00 | 54 | 1011.7 |
| 20260507121545 | 6 | 310 | 4.8 | 8.0 | 0.00 | 0.00 | 0.00 | 54 | 1011.5 |
| 20260507121046 | 5 | 304 | 3.2 | 8.0 | 0.00 | 0.00 | 0.00 | 54 | 1011.4 |
| 20260507120545 | 5 | 297 | 3.2 | 8.0 | 0.00 | 0.00 | 0.00 | 53 | 1011.4 |
| 20260507120053 | 5 | 298 | 3.2 | 8.0 | 0.00 | 0.00 | 0.00 | 52 | 1011.3 |
| 20260507115545 | 6 | 302 | 4.8 | 8.0 | 0.00 | 0.00 | 0.00 | 52 | 1011.3 |
| 20260507115047 | 6 | 302 | 4.8 | 9.7 | 0.00 | 0.00 | 0.00 | 51 | 1011.2 |
| 20260507114544 | 6 | 308 | 4.8 | 9.7 | 0.00 | 0.00 | 0.00 | 51 | 1011.2 |
| 20260507114043 | 6 | 299 | 4.8 | 12.9 | 0.00 | 0.00 | 0.00 | 50 | 1011.1 |
| 20260507113542 | 6 | 304 | 6.4 | 12.9 | 0.00 | 0.00 | 0.00 | 49 | 1011.1 |
| 20260507113048 | 7 | 310 | 6.4 | 12.9 | 0.00 | 0.00 | 0.00 | 49 | 1011.0 |
| 20260507112542 | 7 | 296 | 6.4 | 12.9 | 0.00 | 0.00 | 0.00 | 48 | 1010.9 |
| 20260507112043 | 7 | 306 | 6.4 | 12.9 | 0.00 | 0.00 | 0.00 | 47 | 1011.0 |
| 20260507111541 | 7 | 304 | 8.0 | 14.5 | 0.00 | 0.00 | 0.00 | 47 | 1011.0 |
| 20260507111040 | 7 | 312 | 8.0 | 14.5 | 0.00 | 0.00 | 0.00 | 46 | 1011.0 |
| 20260507110540 | 8 | 310 | 9.7 | 17.7 | 0.00 | 0.00 | 0.00 | 46 | 1010.9 |
| 20260507110040 | 8 | 308 | 11.3 | 19.3 | 0.00 | 0.00 | 0.00 | 46 | 1011.0 |
| 20260507105539 | 8 | 279 | 12.9 | 20.9 | 0.00 | 0.00 | 0.00 | 45 | 1011.0 |
| 20260507105039 | 8 | 290 | 14.5 | 22.5 | 0.00 | 0.00 | 0.00 | 46 | 1011.0 |
| 20260507104538 | 8 | 281 | 14.5 | 22.5 | 0.00 | 0.00 | 0.00 | 46 | 1010.9 |
| 20260507104038 | 8 | 279 | 14.5 | 20.9 | 0.00 | 0.00 | 0.00 | 46 | 1010.9 |
| 20260507103538 | 8 | 273 | 16.1 | 20.9 | 0.00 | 0.00 | 0.00 | 46 | 1010.9 |
| 20260507103036 | 8 | 283 | 12.9 | 20.9 | 0.00 | 0.00 | 0.00 | 45 | 1010.9 |
| 20260507102536 | 8 | 285 | 14.5 | 22.5 | 0.00 | 0.00 | 0.00 | 45 | 1010.9 |
| 20260507102035 | 8 | 269 | 16.1 | 22.5 | 0.00 | 0.00 | 0.00 | 46 | 1011.0 |
| 20260507101534 | 7 | 269 | 16.1 | 19.3 | 0.00 | 0.00 | 0.00 | 47 | 1011.0 |
| 20260507101034 | 7 | 277 | 12.9 | 19.3 | 0.00 | 0.00 | 0.00 | 47 | 1011.0 |
| 20260507100530 | 7 | 276 | 14.5 | 19.3 | 0.00 | 0.00 | 0.00 | 48 | 1011.0 |
| 20260507100036 | 6 | 266 | 12.9 | 17.7 | 0.00 | 0.00 | 0.00 | 48 | 1010.9 |
| 20260507095528 | 6 | 264 | 11.3 | 17.7 | 0.00 | 0.00 | 0.00 | 49 | 1011.0 |
| 20260507095027 | 5 | 261 | 11.3 | 17.7 | 0.00 | 0.00 | 0.00 | 49 | 1011.0 |
| 20260507094526 | 5 | 237 | 8.0 | 14.5 | 0.00 | 0.00 | 0.00 | 48 | 1011.0 |
| 20260507094025 | 5 | 269 | 8.0 | 14.5 | 0.00 | 0.00 | 0.00 | 47 | 1011.1 |
| 20260507093529 | 5 | 263 | 8.0 | 17.7 | 0.00 | 0.00 | 0.00 | 46 | 1011.1 |
| 20260507093025 | 5 | 250 | 11.3 | 20.9 | 0.00 | 0.00 | 0.00 | 46 | 1011.1 |
| 20260507092524 | 5 | 273 | 11.3 | 20.9 | 0.00 | 0.00 | 0.00 | 45 | 1011.1 |
| 20260507092027 | 5 | 269 | 11.3 | 20.9 | 0.00 | 0.00 | 0.00 | 45 | 1011.1 |
| 20260507091525 | 5 | 261 | 12.9 | 24.1 | 0.00 | 0.00 | 0.00 | 44 | 1011.1 |
| 20260507091025 | 5 | 240 | 14.5 | 24.1 | 0.00 | 0.00 | 0.00 | 44 | 1011.2 |
| 20260507090523 | 5 | 256 | 12.9 | 24.1 | 0.00 | 0.00 | 0.00 | 43 | 1011.3 |
| 20260507090022 | 5 | 252 | 8.0 | 17.7 | 0.00 | 0.00 | 0.00 | 42 | 1011.2 |
| 20260507085521 | 5 | 252 | 11.3 | 17.7 | 0.00 | 0.00 | 0.00 | 42 | 1011.2 |
| 20260507085021 | 4 | 270 | 9.7 | 17.7 | 0.00 | 0.00 | 0.00 | 43 | 1011.2 |
| 20260507084520 | 3 | 262 | 11.3 | 17.7 | 0.00 | 0.00 | 0.00 | 42 | 1011.2 |
| 20260507084019 | 3 | 232 | 12.9 | 17.7 | 0.00 | 0.00 | 0.00 | 42 | 1011.2 |
| 20260507083519 | 2 | 238 | 11.3 | 16.1 | 0.00 | 0.00 | 0.00 | 42 | 1011.1 |
| 20260507083019 | 2 | 229 | 9.7 | 14.5 | 0.00 | 0.00 | 0.00 | 40 | 1011.1 |
| 20260507082518 | 3 | 234 | 11.3 | 14.5 | 0.00 | 0.00 | 0.00 | 40 | 1011.2 |
| 20260507082018 | 2 | 237 | 9.7 | 14.5 | 0.00 | 0.00 | 0.00 | 41 | 1011.2 |
| 20260507081518 | 2 | 236 | 8.0 | 12.9 | 0.00 | 0.00 | 0.00 | 41 | 1011.2 |
| 20260507081018 | 2 | 234 | 8.0 | 12.9 | 0.00 | 0.00 | 0.00 | 42 | 1011.3 |
| 20260507080518 | 2 | 235 | 8.0 | 14.5 | 0.00 | 0.00 | 0.00 | 41 | 1011.3 |
| 20260507080016 | 2 | 241 | 8.0 | 14.5 | 0.00 | 0.00 | 0.00 | 42 | 1011.3 |
| 20260507075516 | 2 | 229 | 12.9 | 17.7 | 0.00 | 0.00 | 0.00 | 43 | 1011.3 |
| 20260507075015 | 2 | 233 | 12.9 | 17.7 | 0.00 | 0.00 | 0.00 | 43 | 1011.4 |
| 20260507074526 | 2 | 232 | 12.9 | 17.7 | 0.00 | 0.00 | 0.00 | 44 | 1011.4 |
| 20260507074013 | 1 | 242 | 11.3 | 14.5 | 0.00 | 0.00 | 0.00 | 45 | 1011.5 |
| 20260507073512 | 1 | 248 | 8.0 | 14.5 | 0.00 | 0.00 | 0.00 | 45 | 1011.6 |
| 20260507073012 | 2 | 245 | 9.7 | 14.5 | 0.00 | 0.00 | 0.00 | 44 | 1011.7 |
| 20260507072513 | 1 | 237 | 9.7 | 14.5 | 0.00 | 0.00 | 0.00 | 45 | 1011.6 |
| 20260507072011 | 1 | 242 | 9.7 | 12.9 | 0.00 | 0.00 | 0.00 | 45 | 1011.7 |
| 20260507071511 | 2 | 239 | 8.0 | 16.1 | 0.00 | 0.00 | 0.00 | 44 | 1011.7 |
| 20260507071008 | 2 | 235 | 11.3 | 19.3 | 0.00 | 0.00 | 0.00 | 42 | 1011.8 |
| 20260507070508 | 3 | 232 | 11.3 | 20.9 | 0.00 | 0.00 | 0.00 | 39 | 1011.7 |
| 20260507070011 | 5 | 230 | 16.1 | 22.5 | 0.00 | 0.00 | 0.00 | 37 | 1011.7 |
| 20260507065510 | 5 | 246 | 12.9 | 19.3 | 0.00 | 0.00 | 0.00 | 35 | 1011.6 |
| 20260507065006 | 6 | 259 | 11.3 | 16.1 | 0.00 | 0.00 | 0.00 | 35 | 1011.7 |
| 20260507064505 | 6 | 263 | 11.3 | 14.5 | 0.00 | 0.00 | 0.00 | 35 | 1011.5 |
| 20260507064006 | 5 | 275 | 9.7 | 14.5 | 0.00 | 0.00 | 0.00 | 35 | 1011.5 |
| 20260507063502 | 5 | 270 | 11.3 | 16.1 | 0.00 | 0.00 | 0.00 | 35 | 1011.5 |
| 20260507063002 | 4 | 269 | 9.7 | 16.1 | 0.00 | 0.00 | 0.00 | 37 | 1011.7 |
| 20260507062642 | 3 | 270 | 9.7 | 14.5 | 0.00 | 0.00 | 0.00 | 38 | 1011.8 |
| 20260507062059 | 3 | 248 | 9.7 | 12.9 | 0.00 | 0.00 | 0.00 | 39 | 1011.8 |
| 20260507061558 | 3 | 231 | 9.7 | 19.3 | 0.00 | 0.00 | 0.00 | 37 | 1011.9 |
| 20260507061059 | 5 | 245 | 12.9 | 22.5 | 0.00 | 0.00 | 0.00 | 35 | 1012.0 |
| 20260507060556 | 5 | 261 | 14.5 | 22.5 | 0.00 | 0.00 | 0.00 | 34 | 1012.0 |
| 20260507060155 | 5 | 265 | 16.1 | 22.5 | 0.00 | 0.00 | 0.00 | 35 | 1012.1 |
| 20260507055555 | 4 | 263 | 11.3 | 19.3 | 0.00 | 0.00 | 0.00 | 37 | 1012.1 |
| 20260507055055 | 4 | 238 | 12.9 | 20.9 | 0.00 | 0.00 | 0.00 | 36 | 1012.1 |
| 20260507054556 | 4 | 267 | 12.9 | 20.9 | 0.00 | 0.00 | 0.00 | 36 | 1012.2 |
| 20260507054053 | 4 | 264 | 12.9 | 19.3 | 0.00 | 0.00 | 0.00 | 37 | 1012.3 |
| 20260507053553 | 4 | 253 | 11.3 | 19.3 | 0.00 | 0.00 | 0.00 | 37 | 1012.3 |
| 20260507053053 | 4 | 261 | 12.9 | 19.3 | 0.00 | 0.00 | 0.00 | 37 | 1012.3 |
| 20260507052553 | 5 | 246 | 12.9 | 20.9 | 0.00 | 0.00 | 0.00 | 36 | 1012.4 |
| 20260507052052 | 5 | 279 | 14.5 | 22.5 | 0.00 | 0.00 | 0.00 | 35 | 1012.4 |
| 20260507051552 | 4 | 257 | 14.5 | 20.9 | 0.00 | 0.00 | 0.00 | 37 | 1012.5 |
| 20260507051052 | 3 | 269 | 12.9 | 20.9 | 0.00 | 0.00 | 0.00 | 38 | 1012.5 |
| 20260507050551 | 3 | 252 | 12.9 | 17.7 | 0.00 | 0.00 | 0.00 | 39 | 1012.5 |
| 20260507050056 | 3 | 259 | 11.3 | 17.7 | 0.00 | 0.00 | 0.00 | 39 | 1012.5 |
| 20260507045551 | 3 | 249 | 11.3 | 17.7 | 0.00 | 0.00 | 0.00 | 39 | 1012.6 |
| 20260507045051 | 3 | 250 | 11.3 | 20.9 | 0.00 | 0.00 | 0.00 | 39 | 1012.7 |
| 20260507044552 | 3 | 253 | 14.5 | 20.9 | 0.00 | 0.00 | 0.00 | 39 | 1012.7 |
| 20260507044051 | 3 | 234 | 12.9 | 19.3 | 0.00 | 0.00 | 0.00 | 39 | 1012.8 |
| 20260507043550 | 3 | 258 | 12.9 | 16.1 | 0.00 | 0.00 | 0.00 | 41 | 1012.9 |
| 20260507043051 | 3 | 250 | 11.3 | 19.3 | 0.00 | 0.00 | 0.00 | 42 | 1012.9 |
| 20260507042550 | 3 | 243 | 12.9 | 19.3 | 0.00 | 0.00 | 0.00 | 43 | 1012.9 |
| 20260507042052 | 3 | 255 | 11.3 | 17.7 | 0.00 | 0.00 | 0.00 | 43 | 1012.8 |
| 20260507041553 | 3 | 255 | 9.7 | 16.1 | 0.00 | 0.00 | 0.00 | 43 | 1012.7 |
| 20260507041049 | 3 | 254 | 9.7 | 14.5 | 0.00 | 0.00 | 0.00 | 43 | 1012.8 |
| 20260507040552 | 3 | 250 | 8.0 | 14.5 | 0.00 | 0.00 | 0.00 | 43 | 1012.8 |
| 20260507040052 | 3 | 250 | 6.4 | 14.5 | 0.00 | 0.00 | 0.00 | 42 | 1012.9 |
| 20260507035548 | 4 | 240 | 9.7 | 14.5 | 0.00 | 0.00 | 0.00 | 40 | 1012.9 |
| 20260507035048 | 5 | 246 | 8.0 | 16.1 | 0.00 | 0.00 | 0.00 | 40 | 1012.9 |
| 20260507034605 | 5 | 254 | 8.0 | 16.1 | 0.00 | 0.00 | 0.00 | 39 | 1013.0 |
| 20260507034047 | 5 | 253 | 11.3 | 14.5 | 0.00 | 0.00 | 0.00 | 38 | 1012.9 |
| 20260507033547 | 5 | 261 | 9.7 | 14.5 | 0.00 | 0.00 | 0.00 | 38 | 1012.9 |
| 20260507033102 | 5 | 260 | 8.0 | 16.1 | 0.00 | 0.00 | 0.00 | 38 | 1012.9 |
| 20260507032548 | 5 | 273 | 9.7 | 16.1 | 0.00 | 0.00 | 0.00 | 37 | 1012.8 |
| 20260507032046 | 5 | 257 | 9.7 | 14.5 | 0.00 | 0.00 | 0.00 | 37 | 1012.9 |
| 20260507031546 | 6 | 256 | 9.7 | 16.1 | 0.00 | 0.00 | 0.00 | 37 | 1012.9 |
| 20260507031046 | 6 | 261 | 9.7 | 14.5 | 0.00 | 0.00 | 0.00 | 36 | 1012.9 |
| 20260507030546 | 6 | 261 | 9.7 | 17.7 | 0.00 | 0.00 | 0.00 | 36 | 1012.9 |
| 20260507030045 | 6 | 262 | 9.7 | 17.7 | 0.00 | 0.00 | 0.00 | 36 | 1012.9 |
| 20260507025545 | 6 | 269 | 11.3 | 17.7 | 0.00 | 0.00 | 0.00 | 36 | 1012.9 |
| 20260507025045 | 6 | 264 | 11.3 | 16.1 | 0.00 | 0.00 | 0.00 | 37 | 1012.9 |
| 20260507024553 | 5 | 240 | 8.0 | 14.5 | 0.00 | 0.00 | 0.00 | 36 | 1012.8 |
| 20260507024045 | 6 | 255 | 8.0 | 12.9 | 0.00 | 0.00 | 0.00 | 35 | 1012.8 |
| 20260507023545 | 6 | 274 | 9.7 | 16.1 | 0.00 | 0.00 | 0.00 | 34 | 1012.7 |
| 20260507023042 | 6 | 258 | 11.3 | 17.7 | 0.00 | 0.00 | 0.00 | 33 | 1012.7 |
| 20260507022542 | 6 | 259 | 12.9 | 19.3 | 0.00 | 0.00 | 0.00 | 32 | 1012.7 |
| 20260507022042 | 6 | 269 | 14.5 | 19.3 | 0.00 | 0.00 | 0.00 | 32 | 1012.7 |
| 20260507021542 | 6 | 259 | 12.9 | 17.7 | 0.00 | 0.00 | 0.00 | 33 | 1012.6 |
| 20260507021046 | 7 | 246 | 12.9 | 17.7 | 0.00 | 0.00 | 0.00 | 32 | 1012.6 |
| 20260507020542 | 7 | 253 | 11.3 | 19.3 | 0.00 | 0.00 | 0.00 | 32 | 1012.5 |
| 20260507020042 | 7 | 265 | 9.7 | 19.3 | 0.00 | 0.00 | 0.00 | 32 | 1012.6 |
| 20260507015543 | 7 | 263 | 11.3 | 17.7 | 0.00 | 0.00 | 0.00 | 31 | 1012.6 |
| 20260507015041 | 7 | 270 | 12.9 | 19.3 | 0.00 | 0.00 | 0.00 | 31 | 1012.5 |
| 20260507014541 | 8 | 266 | 12.9 | 19.3 | 0.00 | 0.00 | 0.00 | 31 | 1012.5 |
| 20260507014041 | 8 | 252 | 11.3 | 16.1 | 0.00 | 0.00 | 0.00 | 31 | 1012.5 |
| 20260507013538 | 8 | 266 | 11.3 | 22.5 | 0.00 | 0.00 | 0.00 | 31 | 1012.6 |
| 20260507013040 | 8 | 263 | 11.3 | 22.5 | 0.00 | 0.00 | 0.00 | 31 | 1012.7 |
| 20260507012537 | 8 | 279 | 14.5 | 20.9 | 0.00 | 0.00 | 0.00 | 30 | 1012.7 |
| 20260507012037 | 9 | 275 | 16.1 | 20.9 | 0.00 | 0.00 | 0.00 | 30 | 1012.7 |
| 20260507011539 | 8 | 275 | 12.9 | 20.9 | 0.00 | 0.00 | 0.00 | 29 | 1012.8 |
| 20260507011036 | 9 | 274 | 14.5 | 22.5 | 0.00 | 0.00 | 0.00 | 29 | 1012.9 |
| 20260507010536 | 9 | 284 | 16.1 | 27.4 | 0.00 | 0.00 | 0.00 | 28 | 1012.9 |
| 20260507010039 | 9 | 251 | 19.3 | 29.0 | 0.00 | 0.00 | 0.00 | 28 | 1012.9 |
| 20260507005535 | 9 | 278 | 22.5 | 29.0 | 0.00 | 0.00 | 0.00 | 28 | 1012.9 |
| 20260507005034 | 9 | 270 | 17.7 | 25.7 | 0.00 | 0.00 | 0.00 | 27 | 1013.1 |
| 20260507004533 | 9 | 267 | 14.5 | 38.6 | 0.00 | 0.00 | 0.00 | 27 | 1013.1 |
| 20260507004033 | 9 | 258 | 20.9 | 38.6 | 0.00 | 0.00 | 0.00 | 27 | 1013.1 |
| 20260507003533 | 9 | 275 | 19.3 | 29.0 | 0.00 | 0.00 | 0.00 | 26 | 1013.1 |
| 20260507003032 | 9 | 259 | 19.3 | 27.4 | 0.00 | 0.00 | 0.00 | 26 | 1013.2 |
| 20260507002531 | 9 | 290 | 20.9 | 27.4 | 0.00 | 0.00 | 0.00 | 25 | 1013.2 |
| 20260507002031 | 10 | 281 | 20.9 | 32.2 | 0.00 | 0.00 | 0.00 | 25 | 1013.3 |
| 20260507001537 | 10 | 271 | 20.9 | 32.2 | 0.00 | 0.00 | 0.00 | 26 | 1013.4 |
| 20260507001029 | 9 | 273 | 24.1 | 32.2 | 0.00 | 0.00 | 0.00 | 26 | 1013.4 |
| 20260507000528 | 9 | 273 | 16.1 | 37.0 | 0.00 | 0.00 | 0.00 | 27 | 1013.6 |
| 20260507000030 | 9 | 281 | 20.9 | 37.0 | 0.00 | 0.00 | 0.00 | 27 | 1013.6 |
| 20260506235528 | 9 | 273 | 12.9 | 30.6 | 0.00 | 0.00 | 0.00 | 27 | 1013.5 |
| 20260506235028 | 9 | 269 | 20.9 | 30.6 | 0.00 | 0.00 | 0.00 | 26 | 1013.6 |
| 20260506234543 | 10 | 270 | 19.3 | 38.6 | 0.00 | 0.00 | 0.00 | 26 | 1013.6 |
| 20260506234027 | 10 | 260 | 27.4 | 38.6 | 0.00 | 0.00 | 0.00 | 26 | 1013.5 |
| 20260506233527 | 10 | 232 | 14.5 | 33.8 | 0.00 | 0.00 | 0.00 | 26 | 1013.5 |
| 20260506233027 | 10 | 259 | 22.5 | 35.4 | 0.00 | 0.00 | 0.00 | 27 | 1013.7 |
| 20260506232526 | 9 | 271 | 24.1 | 37.0 | 0.00 | 0.00 | 0.00 | 27 | 1013.6 |
| 20260506232029 | 9 | 273 | 19.3 | 38.6 | 0.00 | 0.00 | 0.00 | 28 | 1013.6 |
| 20260506231526 | 9 | 271 | 24.1 | 43.5 | 0.00 | 0.00 | 0.00 | 27 | 1013.6 |
| 20260506231026 | 10 | 273 | 25.7 | 49.9 | 0.00 | 0.00 | 0.00 | 27 | 1013.5 |
| 20260506230525 | 9 | 273 | 25.7 | 49.9 | 0.00 | 0.00 | 0.00 | 27 | 1013.6 |
| 20260506230024 | 10 | 215 | 20.9 | 37.0 | 0.00 | 0.00 | 0.00 | 28 | 1013.6 |
| 20260506225524 | 9 | 271 | 24.1 | 37.0 | 0.00 | 0.00 | 0.00 | 28 | 1013.8 |
| 20260506225023 | 9 | 271 | 22.5 | 41.8 | 0.00 | 0.00 | 0.00 | 29 | 1013.7 |
| 20260506224527 | 9 | 272 | 27.4 | 41.8 | 0.00 | 0.00 | 0.00 | 28 | 1013.9 |